EW4271 Weather Reports


time (UTC)temp
C
wind
direction
speed
KPH
gust
KPH
rain 1hr
cm
rain 24hr
cm
rain mn
cm
humidity
%
barometer
mb
20260902045611 14 55 0.0 0.0 0.00 0.13 0.10 81 1027.4
20260902045109 14 55 0.0 0.0 0.00 0.13 0.10 81 1027.4
20260902044602 14 55 0.0 0.0 0.00 0.13 0.10 80 1027.5
20260902044116 15 55 0.0 0.0 0.00 0.13 0.10 80 1027.4
20260902043609 15 55 0.0 0.0 0.00 0.13 0.10 80 1027.4
20260902043104 15 55 0.0 0.0 0.00 0.13 0.10 78 1027.5
20260902042617 15 55 0.0 0.0 0.00 0.13 0.10 78 1027.6
20260902042110 15 55 0.0 0.0 0.00 0.13 0.10 79 1027.6
20260902041603 15 55 0.0 0.0 0.00 0.13 0.10 79 1027.6
20260902041118 15 55 0.0 0.0 0.00 0.13 0.10 78 1027.6
20260902040611 15 55 0.0 0.0 0.00 0.13 0.10 78 1027.6
20260902040109 15 55 0.0 0.0 0.00 0.13 0.10 78 1027.4
20260902035623 15 55 0.0 0.0 0.00 0.13 0.10 80 1027.4
20260902035115 15 55 0.0 0.0 0.00 0.13 0.10 79 1027.4
20260902034609 15 55 0.0 0.0 0.00 0.13 0.10 79 1027.4
20260902034102 15 55 0.0 0.0 0.00 0.13 0.10 80 1027.3
20260902033616 15 55 0.0 0.0 0.00 0.13 0.10 80 1027.2
20260902033131 15 55 0.0 0.0 0.00 0.13 0.10 79 1027.2
20260902032604 15 55 0.0 0.0 0.00 0.13 0.10 79 1027.1
20260902032138 15 55 0.0 0.0 0.00 0.13 0.10 79 1027.1
20260902031616 15 55 0.0 0.0 0.00 0.13 0.10 78 1026.9
20260902031110 15 55 0.0 0.0 0.00 0.13 0.10 77 1026.9
20260902030604 15 55 0.0 0.0 0.00 0.13 0.10 77 1026.9
20260902030117 16 55 0.0 0.0 0.00 0.13 0.10 76 1026.8
20260902025611 16 55 0.0 0.0 0.00 0.13 0.10 75 1026.8
20260902025106 16 55 0.0 0.0 0.00 0.13 0.10 74 1026.6
20260902024621 16 55 0.0 0.0 0.00 0.13 0.10 75 1026.6
20260902024115 16 55 0.0 0.0 0.00 0.13 0.10 74 1026.6
20260902023613 16 55 0.0 0.0 0.00 0.13 0.10 74 1026.5
20260902023128 16 55 0.0 0.0 0.00 0.13 0.10 74 1026.5
20260902022601 17 55 0.0 3.2 0.00 0.13 0.10 72 1026.4
20260902022115 17 55 1.6 3.2 0.00 0.13 0.10 71 1026.3
20260902021608 17 55 0.0 0.0 0.00 0.13 0.10 70 1026.2
20260902021102 17 55 0.0 0.0 0.00 0.13 0.10 71 1026.1
20260902020615 17 55 0.0 0.0 0.00 0.13 0.10 70 1026.1
20260902020108 18 55 0.0 0.0 0.00 0.13 0.10 70 1026.1
20260902015602 18 55 0.0 0.0 0.00 0.13 0.10 68 1026.0
20260902015120 18 55 0.0 0.0 0.00 0.13 0.10 68 1026.0
20260902014614 18 55 0.0 0.0 0.00 0.13 0.10 66 1025.9
20260902014108 18 55 0.0 0.0 0.00 0.13 0.10 65 1025.8
20260902013602 19 55 0.0 0.0 0.00 0.13 0.10 62 1025.8
20260902013116 20 55 0.0 0.0 0.00 0.15 0.10 62 1025.7
20260902012610 20 55 0.0 0.0 0.00 0.15 0.10 61 1025.7
20260902012104 20 55 0.0 0.0 0.00 0.15 0.10 59 1025.7
20260902011618 20 55 0.0 0.0 0.00 0.15 0.10 58 1025.7
20260902011116 20 55 0.0 0.0 0.00 0.15 0.10 57 1025.7
20260902010629 20 55 0.0 0.0 0.00 0.15 0.10 55 1025.7
20260902005616 21 55 0.0 0.0 0.00 0.15 0.10 57 1025.7
20260902005109 21 55 0.0 0.0 0.00 0.15 0.10 58 1025.7
20260902004603 21 55 0.0 0.0 0.00 0.15 0.10 58 1025.9
20260902004117 21 55 0.0 0.0 0.00 0.15 0.10 59 1025.9
20260902003610 21 55 0.0 0.0 0.00 0.15 0.10 58 1025.9
20260902003104 21 55 0.0 0.0 0.00 0.18 0.10 58 1026.0
20260902002601 21 55 0.0 3.2 0.00 0.18 0.10 57 1026.0
20260902002114 21 55 0.0 4.8 0.00 0.18 0.10 57 1026.0
20260902001608 21 55 1.6 4.8 0.00 0.18 0.10 56 1026.0
20260902001102 21 55 1.6 8.0 0.00 0.18 0.10 56 1026.1
20260902000616 21 55 3.2 8.0 0.00 0.18 0.10 55 1026.0
20260902000110 21 46 3.2 6.4 0.00 0.18 0.10 56 1025.9
20260901235602 22 142 0.0 1.6 0.00 0.18 0.10 56 1025.8
20260901235116 22 118 0.0 1.6 0.00 0.18 0.10 55 1025.8
20260901234614 22 133 0.0 4.8 0.00 0.18 0.10 56 1025.7
20260901234109 22 137 0.0 4.8 0.00 0.18 0.10 55 1025.7
20260901233602 22 142 3.2 4.8 0.00 0.18 0.10 53 1025.7
20260901233117 22 142 1.6 6.4 0.00 0.91 0.10 55 1025.7
20260901232611 23 142 1.6 6.4 0.00 0.91 0.10 55 1025.6
20260901232106 22 163 1.6 3.2 0.00 0.91 0.10 54 1025.7
20260901231620 22 137 0.0 4.8 0.00 0.91 0.10 56 1025.6
20260901231112 22 156 1.6 6.4 0.00 0.91 0.10 55 1025.7
20260901230610 22 144 1.6 6.4 0.00 0.91 0.10 56 1025.7
20260901230104 22 144 1.6 4.8 0.00 0.91 0.10 58 1025.7
20260901225619 22 30 0.0 4.8 0.00 0.91 0.10 59 1025.7
20260901225107 22 51 1.6 6.4 0.00 0.91 0.10 56 1025.8
20260901224620 22 38 3.2 6.4 0.00 0.91 0.10 56 1025.8
20260901224135 22 49 4.8 6.4 0.00 0.91 0.10 54 1025.9
20260901223609 22 190 0.0 6.4 0.00 0.91 0.10 55 1026.0
20260901223102 22 167 3.2 6.4 0.00 0.91 0.10 53 1025.9
20260901222617 23 89 0.0 3.2 0.00 0.91 0.10 52 1026.0
20260901222115 23 240 0.0 3.2 0.00 0.91 0.10 52 1026.0
20260901221629 23 240 1.6 3.2 0.00 0.91 0.10 48 1025.9
20260901221102 23 136 0.0 3.2 0.00 0.91 0.10 52 1026.0
20260901220616 23 136 1.6 4.8 0.00 0.91 0.10 47 1026.0
20260901220130 23 136 1.6 4.8 0.00 0.91 0.10 51 1026.1
20260901215603 23 154 1.6 3.2 0.00 0.91 0.10 52 1026.1
20260901215137 23 157 1.6 8.0 0.00 0.91 0.10 51 1026.2
20260901214610 23 157 1.6 9.7 0.00 0.91 0.10 48 1026.2
20260901214104 23 296 4.8 9.7 0.00 0.91 0.10 45 1026.2
20260901213602 23 49 3.2 8.0 0.03 0.91 0.10 48 1026.2
20260901213116 23 136 1.6 8.0 0.03 0.91 0.10 51 1026.3
20260901212630 22 154 1.6 9.7 0.03 0.91 0.10 56 1026.4
20260901212103 21 302 1.6 9.7 0.03 0.91 0.10 62 1026.5
20260901211617 20 295 0.0 3.2 0.03 0.91 0.10 65 1026.7
20260901211111 20 91 0.0 4.8 0.03 0.91 0.10 66 1026.7
20260901210604 20 91 1.6 6.4 0.05 0.91 0.10 70 1026.8
20260901210138 19 46 1.6 6.4 0.05 0.91 0.10 74 1026.9
20260901205611 18 208 1.6 4.8 0.05 0.91 0.10 74 1027.1
20260901205108 18 355 0.0 0.0 0.05 0.91 0.10 79 1027.2
20260901204603 18 355 0.0 0.0 0.05 0.91 0.10 77 1027.3
20260901204116 18 355 0.0 0.0 0.05 0.91 0.10 77 1027.4
20260901203609 18 355 0.0 0.0 0.03 0.89 0.08 75 1027.4
20260901203103 18 302 0.0 3.2 0.03 0.89 0.08 73 1027.7
20260901202618 19 336 0.0 11.3 0.03 0.89 0.08 68 1027.7
20260901202110 19 303 4.8 11.3 0.03 0.89 0.08 63 1027.6
20260901201608 20 29 0.0 8.0 0.03 0.89 0.08 63 1027.5
20260901201102 21 312 3.2 8.0 0.03 0.89 0.08 61 1027.5
20260901200615 22 344 3.2 8.0 0.00 0.86 0.05 60 1027.3
20260901200109 22 20 3.2 9.7 0.00 0.86 0.05 52 1027.2
20260901195603 22 302 3.2 9.7 0.00 0.86 0.05 52 1027.1
20260901195116 22 338 1.6 9.7 0.00 0.86 0.05 54 1027.2
20260901194610 22 153 1.6 12.9 0.00 0.86 0.05 56 1027.2
20260901194104 22 120 4.8 12.9 0.00 0.86 0.05 56 1027.3
20260901193603 22 154 4.8 11.3 0.00 0.86 0.05 57 1027.3
20260901193117 22 24 3.2 8.0 0.00 0.86 0.05 58 1027.4
20260901192610 22 192 0.0 12.9 0.00 0.86 0.05 56 1027.5
20260901192105 22 111 4.8 12.9 0.00 0.86 0.05 60 1027.6
20260901191639 22 54 3.2 6.4 0.00 0.86 0.05 61 1027.5
20260901191111 21 302 1.6 8.0 0.00 0.86 0.05 60 1027.7
20260901190606 21 153 3.2 11.3 0.00 0.86 0.05 63 1027.8
20260901190118 21 156 3.2 14.5 0.00 0.86 0.05 63 1027.9
20260901185614 21 132 6.4 14.5 0.00 0.86 0.05 67 1028.0
20260901185108 20 186 3.2 11.3 0.00 0.86 0.05 68 1028.0
20260901184605 20 175 1.6 12.9 0.00 0.86 0.05 69 1028.0
20260901184119 20 153 3.2 8.0 0.00 0.86 0.05 70 1028.1
20260901183633 20 160 0.0 9.7 0.00 0.86 0.05 71 1028.1
20260901183126 19 159 0.0 6.4 0.00 0.86 0.05 73 1028.3
20260901182619 19 160 1.6 6.4 0.00 0.86 0.05 74 1028.3
20260901182113 18 155 3.2 9.7 0.00 0.86 0.05 76 1028.3
20260901181607 18 144 3.2 9.7 0.00 0.86 0.05 77 1028.3
20260901181121 18 90 0.0 3.2 0.00 0.86 0.05 79 1028.3
20260901180615 18 90 0.0 1.6 0.00 0.86 0.05 78 1028.4
20260901180133 18 90 0.0 3.2 0.00 0.86 0.05 79 1028.4
20260901175607 18 90 1.6 3.2 0.00 0.86 0.05 77 1028.5
20260901175102 18 16 0.0 6.4 0.00 0.86 0.05 76 1028.7
20260901174615 18 142 1.6 6.4 0.00 0.86 0.05 77 1028.8
20260901174109 18 144 1.6 6.4 0.00 0.86 0.05 76 1028.9
20260901173603 18 144 1.6 6.4 0.00 0.86 0.05 75 1028.9
20260901173138 18 147 1.6 4.8 0.00 0.86 0.05 75 1028.8
20260901172610 18 193 0.0 4.8 0.00 0.86 0.05 74 1028.8
20260901172105 18 142 0.0 3.2 0.00 0.86 0.05 76 1028.7
20260901171601 18 142 0.0 4.8 0.00 0.86 0.05 76 1028.8
20260901171116 18 142 0.0 4.8 0.00 0.86 0.05 75 1028.7
20260901170629 18 130 1.6 4.8 0.00 0.86 0.05 76 1028.8
20260901165616 18 146 0.0 9.7 0.00 0.86 0.05 77 1028.8
20260901165110 18 149 1.6 9.7 0.00 0.86 0.05 80 1028.8
20260901164603 17 46 0.0 8.0 0.00 0.86 0.05 82 1028.7
20260901164137 17 157 1.6 8.0 0.00 0.86 0.05 84 1028.7
20260901163610 17 58 1.6 4.8 0.00 0.86 0.05 84 1028.7
20260901163108 17 198 0.0 3.2 0.00 0.86 0.05 86 1028.6
20260901162602 17 61 1.6 4.8 0.00 0.86 0.05 86 1028.6
20260901162115 17 34 1.6 8.0 0.00 0.86 0.05 85 1028.4
20260901161609 17 171 3.2 8.0 0.00 0.86 0.05 87 1028.5
20260901161103 16 112 0.0 3.2 0.00 0.86 0.05 88 1028.4
20260901160617 16 143 0.0 3.2 0.00 0.86 0.05 90 1028.3
20260901160131 16 138 0.0 3.2 0.00 0.86 0.05 88 1028.2
20260901155604 16 173 0.0 1.6 0.00 0.86 0.05 91 1028.2
20260901155140 16 173 0.0 0.0 0.00 0.86 0.05 92 1028.2
20260901154617 16 173 0.0 1.6 0.00 0.86 0.05 93 1028.2
20260901154112 15 173 0.0 3.2 0.00 0.86 0.05 93 1028.2
20260901153626 15 328 0.0 1.6 0.00 0.86 0.05 94 1028.3
20260901153119 15 328 0.0 0.0 0.00 0.86 0.05 94 1028.3
20260901152613 15 328 0.0 0.0 0.00 0.86 0.05 94 1028.3
20260901152107 15 328 0.0 0.0 0.00 0.86 0.05 94 1028.3
20260901151602 15 328 0.0 0.0 0.00 0.86 0.05 95 1028.2
20260901151115 15 328 0.0 0.0 0.00 0.86 0.05 95 1028.2
20260901150613 15 328 0.0 0.0 0.00 0.86 0.05 95 1028.2
20260901150107 15 328 0.0 0.0 0.00 0.86 0.05 95 1028.1
20260901145620 14 328 0.0 0.0 0.00 0.86 0.05 95 1028.3
20260901145114 15 328 0.0 0.0 0.00 0.86 0.05 95 1028.1
20260901144608 15 328 0.0 0.0 0.00 0.86 0.05 95 1028.1
20260901144102 14 328 0.0 0.0 0.00 0.86 0.05 95 1028.1
20260901143617 14 328 0.0 0.0 0.00 0.86 0.05 95 1028.1
20260901143111 14 328 0.0 0.0 0.00 0.86 0.05 95 1028.0
20260901142608 14 328 0.0 0.0 0.00 0.86 0.05 95 1027.9
20260901142104 14 328 0.0 0.0 0.00 0.86 0.05 95 1027.9
20260901141616 14 328 0.0 0.0 0.00 0.86 0.05 95 1027.9
20260901141110 14 328 0.0 0.0 0.00 0.86 0.05 95 1028.0
20260901140604 13 328 0.0 0.0 0.00 0.86 0.05 95 1028.0
20260901140140 13 328 0.0 0.0 0.00 0.86 0.05 95 1028.0
20260901135633 13 328 0.0 0.0 0.00 0.86 0.05 95 1028.0
20260901135106 13 328 0.0 0.0 0.00 0.86 0.05 95 1028.1
20260901134604 13 328 0.0 1.6 0.00 0.86 0.05 95 1028.2
20260901134118 13 328 0.0 1.6 0.00 0.86 0.05 95 1028.1
20260901133613 13 328 0.0 0.0 0.00 0.86 0.05 94 1028.0
20260901133107 13 328 0.0 0.0 0.00 0.86 0.05 94 1028.0
20260901132621 13 328 0.0 0.0 0.00 0.86 0.05 94 1028.0
20260901132135 13 328 0.0 0.0 0.00 0.86 0.05 95 1027.9
20260901131607 13 328 0.0 0.0 0.00 0.86 0.05 94 1027.8
20260901131101 13 328 0.0 0.0 0.00 0.86 0.05 94 1027.7
20260901130615 13 328 0.0 0.0 0.00 0.86 0.05 94 1027.5
20260901130113 13 328 0.0 0.0 0.00 0.86 0.05 94 1027.6
20260901125607 13 328 0.0 0.0 0.00 0.86 0.05 94 1027.7
20260901125102 13 328 0.0 0.0 0.03 0.86 0.05 94 1027.6
20260901124636 13 328 0.0 0.0 0.03 0.86 0.05 94 1027.6
20260901124108 13 328 0.0 0.0 0.03 0.86 0.05 94 1027.6
20260901123602 13 328 0.0 0.0 0.03 0.86 0.05 94 1027.5
20260901123116 13 328 0.0 0.0 0.03 0.86 0.05 94 1027.6
20260901122610 13 328 0.0 0.0 0.05 0.86 0.05 94 1027.7
20260901122108 13 328 0.0 0.0 0.05 0.86 0.05 94 1027.7
20260901121602 13 328 0.0 0.0 0.05 0.86 0.05 94 1027.7
20260901121116 13 328 0.0 0.0 0.05 0.86 0.05 94 1027.8
20260901120630 14 328 0.0 0.0 0.05 0.86 0.05 94 1027.8
20260901115618 14 328 0.0 0.0 0.05 0.86 0.05 94 1028.0
20260901115111 14 328 0.0 0.0 0.03 0.84 0.03 94 1028.1
20260901114605 14 328 0.0 0.0 0.03 0.84 0.03 94 1028.1
20260901114103 14 328 0.0 0.0 0.03 0.84 0.03 94 1028.1
20260901113617 14 328 0.0 0.0 0.03 0.84 0.03 94 1028.0
20260901113111 15 328 0.0 0.0 0.03 0.84 0.03 94 1028.1
20260901112604 15 328 0.0 0.0 0.00 0.81 0.00 94 1028.0
20260901112119 15 328 0.0 0.0 0.00 0.81 0.00 94 1027.9
20260901111612 15 328 0.0 0.0 0.00 0.81 0.00 94 1027.9
20260901111106 15 328 0.0 0.0 0.00 0.81 0.00 94 1028.0
20260901110605 15 328 0.0 0.0 0.00 0.81 0.00 94 1028.0
20260901110118 15 328 0.0 0.0 0.00 0.81 0.00 94 1027.9
20260901105611 15 328 0.0 0.0 0.00 0.81 0.00 94 1027.9
20260901105104 15 328 0.0 0.0 0.00 0.81 0.00 94 1027.8
20260901104618 15 328 0.0 0.0 0.00 0.81 0.00 94 1027.7
20260901104113 15 328 0.0 0.0 0.00 0.81 0.00 94 1027.7
20260901103607 15 328 0.0 0.0 0.00 0.81 0.00 94 1027.7
20260901103101 15 328 0.0 0.0 0.00 0.81 0.00 94 1027.8
20260901102615 15 328 0.0 0.0 0.00 0.81 0.00 94 1027.8
20260901102113 15 328 0.0 0.0 0.00 0.81 0.00 94 1027.7
20260901101608 15 328 0.0 0.0 0.00 0.81 0.00 94 1027.8
20260901101102 15 328 0.0 0.0 0.00 0.81 0.00 94 1027.9
20260901100615 15 328 0.0 0.0 0.00 0.81 0.00 94 1028.1
20260901100129 15 328 0.0 0.0 0.00 0.81 0.00 94 1028.1
20260901095602 15 328 0.0 0.0 0.00 0.81 0.00 94 1028.2
20260901095116 15 328 0.0 0.0 0.00 0.81 0.00 94 1028.1
20260901094610 15 328 0.0 0.0 0.00 0.81 0.00 94 1028.3
20260901094107 15 328 0.0 0.0 0.00 0.81 0.00 94 1028.3
20260901093602 15 328 0.0 0.0 0.00 0.81 0.00 94 1028.4
20260901093115 15 328 0.0 0.0 0.00 0.81 0.00 94 1028.5
20260901092630 14 328 0.0 0.0 0.00 0.81 0.00 94 1028.4
20260901092102 14 328 0.0 0.0 0.00 0.81 0.00 94 1028.5
20260901091615 14 328 0.0 1.6 0.00 0.81 0.00 94 1028.4
20260901091108 14 328 0.0 1.6 0.00 0.81 0.00 94 1028.4
20260901090602 14 319 0.0 0.0 0.00 0.81 0.00 93 1028.3
20260901090116 14 169 0.0 0.0 0.00 0.81 0.00 93 1028.3
20260901085630 14 169 0.0 0.0 0.00 0.81 0.00 93 1028.0
20260901085107 14 169 0.0 0.0 0.00 0.81 0.00 93 1027.8
20260901084603 14 169 0.0 0.0 0.00 0.81 0.00 93 1027.6
20260901084118 14 169 0.0 0.0 0.00 0.81 0.00 94 1027.6
20260901083612 14 169 0.0 0.0 0.00 0.81 0.00 94 1027.5
20260901083106 14 169 0.0 0.0 0.00 0.81 0.00 94 1027.5
20260901082620 14 169 0.0 0.0 0.00 0.81 0.00 94 1027.4
20260901082113 14 169 0.0 0.0 0.00 0.81 0.00 94 1027.3
20260901081613 14 169 0.0 0.0 0.00 0.81 0.00 93 1027.3
20260901081106 14 169 0.0 0.0 0.00 0.81 0.00 93 1027.4
20260901080620 14 169 0.0 0.0 0.00 0.81 0.00 94 1027.5
20260901080114 14 169 0.0 0.0 0.00 0.81 0.00 94 1027.6
20260901075608 14 169 0.0 0.0 0.00 0.81 0.00 94 1027.6
20260901075101 14 169 0.0 0.0 0.00 0.81 0.00 94 1027.6
20260901074615 14 169 0.0 0.0 0.00 0.81 0.00 94 1027.6
20260901074108 14 169 0.0 0.0 0.00 0.81 0.00 94 1027.6
20260901073623 14 169 0.0 0.0 0.00 0.81 0.00 94 1027.7
20260901073101 14 169 0.0 0.0 0.00 0.81 0.00 94 1027.7
20260901072614 14 169 0.0 0.0 0.00 0.81 0.00 94 1027.7
20260901072109 14 169 0.0 0.0 0.00 0.81 0.00 94 1027.8
20260901071603 14 169 0.0 0.0 0.00 0.81 0.00 94 1027.7
20260901071136 14 169 0.0 0.0 0.00 0.81 0.00 94 1027.7
20260901070610 14 169 0.0 0.0 0.00 0.81 0.00 93 1027.5
20260901070105 14 169 0.0 0.0 0.00 0.81 0.00 93 1027.6
20260901065618 14 169 0.0 0.0 0.03 0.81 0.00 93 1027.7
20260901065107 14 169 0.0 0.0 0.03 0.81 0.00 93 1027.6
20260901064605 14 169 0.0 0.0 0.03 0.81 0.00 93 1027.6
20260901064139 15 169 0.0 0.0 0.03 0.81 0.00 93 1027.5
20260901063611 15 169 0.0 0.0 0.03 0.81 0.00 93 1027.4
20260901063105 15 169 0.0 0.0 0.03 0.81 0.81 93 1027.4
20260901062618 15 169 0.0 0.0 0.03 0.81 0.81 93 1027.4
20260901062112 15 169 0.0 0.0 0.03 0.81 0.81 93 1027.4
20260901061607 15 169 0.0 0.0 0.03 0.81 0.81 93 1027.4
20260901061101 15 169 0.0 0.0 0.03 0.81 0.81 93 1027.4
20260901060619 15 169 0.0 0.0 0.03 0.81 0.81 93 1027.4
20260901060112 15 169 0.0 0.0 0.03 0.81 0.81 93 1027.5
20260901055627 15 169 0.0 0.0 0.00 0.79 0.79 93 1027.5
20260901055120 15 169 0.0 0.0 0.00 0.79 0.79 93 1027.6
20260901054635 15 169 0.0 0.0 0.00 0.79 0.79 93 1027.5
20260901054108 15 169 0.0 0.0 0.00 0.79 0.79 93 1027.6
20260901053603 15 169 0.0 0.0 0.00 0.79 0.79 93 1027.6
20260901053115 15 169 0.0 0.0 0.00 0.79 0.79 93 1027.6
20260901052609 15 169 0.0 0.0 0.00 0.79 0.79 93 1027.9
20260901052107 15 169 0.0 0.0 0.00 0.79 0.79 93 1027.9
20260901051621 15 169 0.0 0.0 0.00 0.79 0.79 93 1027.8
20260901051114 15 169 0.0 0.0 0.00 0.79 0.79 93 1027.5
20260901050608 15 169 0.0 0.0 0.00 0.79 0.79 93 1027.6
20260901050100 15 169 0.0 0.0 0.00 0.79 0.79 93 1027.9